Flag for Canada Weather past 2 weeks in Dieppe, New Brunswick, Canada

Now
34 °F

Overcast.


Feels Like: 26 °F
Forecast: 30 / 42 °F
Wind: 10 mph from South

Location: Moncton

Current Time: Mar 30, 2015 at 10:08:51 PM

Latest Report: Mar 30, 2015 at 9:00 PM


Visibility: 15 mi

Pressure: 29.72 "Hg

Humidity: 60%

Dew point: 21 °F

Location of DieppeLocation

Historic Weather in Dieppe — Graph

°F

Dieppe temperature yesterday

Maximum temperature yesterday: 37 °F (at 4:00 PM)
Minimum temperature yesterday: 21 °F (at 7:00 AM)
Average temperature yesterday: 28 °F

Past Weeks' High & Low Weather Summary

 TemperatureHumidityPressure
High45 °F (Mar 26, 2:00 PM)100% (Mar 16, 3:00 AM)30.31 "Hg (Mar 16, 3:00 AM)
Low0 °F (Mar 17, 6:00 AM)27% (Mar 29, 2:00 PM)29.21 "Hg (Mar 18, 4:00 AM)
Average25 °F68%29.79 "Hg
* Reported Mar 15 8:00 PM — Mar 30 8:00 PM, Dieppe, Weather by CustomWeather, © 2015

Note: Actual official high and low records may vary slightly from our data, if they occured in-between our weather recording intervals... More about our weather records

Advertising

Dieppe weather history for previous 24 hours

 ConditionsComfort  
Time TempWeatherWind HumidityBarometerVisibility
8:00 PM
Mon, Mar 30
36 °FOvercast.10 mph52%29.73 "Hg15 mi
7:00 PM37 °FOvercast.17 mph48%29.75 "Hg15 mi
6:00 PM37 °FPartly sunny.20 mph48%29.76 "Hg15 mi
5:00 PM37 °FOvercast.17 mph45%29.78 "Hg15 mi
4:00 PM37 °FOvercast.20 mph41%29.80 "Hg15 mi
3:00 PM37 °FPartly sunny.16 mph41%29.82 "Hg15 mi
2:00 PM37 °FPartly sunny.17 mph45%29.85 "Hg15 mi
1:00 PM39 °FPartly sunny.16 mph39%29.86 "Hg15 mi
12:00 PM37 °FPartly sunny.15 mph45%29.89 "Hg15 mi
11:00 AM36 °FBroken clouds.14 mph60%29.90 "Hg15 mi
10:00 AM34 °FBroken clouds.14 mph56%29.92 "Hg15 mi
9:00 AM30 °FPassing clouds.10 mph47%29.94 "Hg15 mi
8:00 AM23 °FPassing clouds.5 mph58%29.95 "Hg15 mi
7:00 AM21 °FPassing clouds.6 mph63%29.96 "Hg15 mi
6:00 AM21 °FPassing clouds.7 mph58%29.96 "Hg15 mi
5:00 AM21 °FClear.7 mph63%29.97 "Hg15 mi
4:00 AM21 °FClear.7 mph68%29.97 "Hg15 mi
3:00 AM23 °FClear.6 mph58%29.98 "Hg15 mi
2:00 AM23 °FClear.7 mph68%29.99 "Hg15 mi
1:00 AM23 °FClear.8 mph63%30.00 "Hg15 mi
12:00 AM25 °FClear.8 mph59%30.01 "Hg15 mi
11:00 PM
Sun, Mar 29
27 °FClear.7 mph46%30.01 "Hg15 mi
10:00 PM28 °FPassing clouds.9 mph40%30.01 "Hg15 mi
Weather by CustomWeather, © 2015

See weather overviewHow to use our weather pages